Tracking 30970 objects as of 3-Jul-2025
HD Live streaming from Space Station
objects crossing your sky now

DELTA 1 DEB

Track DELTA 1 DEB now!
10-day predictions


NORAD ID: 21686
Int'l Code: 1975-052JN
Perigee: 735.5 km
Apogee: 947.7 km
Inclination: 100.0 °
Period: 101.6 minutes
Semi major axis: 7212 km
RCS: 0.0161 m2 (small)
Launch date: June 12, 1975
Source: United States (US)
Launch site: AIR FORCE WESTERN TEST RANGE (AFWTR)

Note: This is SATELLITE DEBRIS
Your satellite tracking list
Your tracking list is empty




NASA's NSSDC Master Catalog

Two Line Element Set (TLE):
1 21686U 75052JN  25183.86704133  .00004243  00000-0  19098-2 0  9995
2 21686  99.9846 158.5139 0147116 188.4191 171.4508 14.17312490705239
Source of the keplerian elements: AFSPC